Date String (YYYY-MM-DD hh:mm:ss) UTC,Instrument flags,Ambient pressure (hPa),Sample flow (lpm),Bypass flow (lpm),Sample temperature (°C),Ambient temperature (°C),ASC tube jacket temperature (°C),LED temperature (°C),Box temperature (°C),Sample RH (%),Span deviation,Mass concentration (μg/m³),Mass concentration (μg/m³),Mass concentration (μg/m³)
DateTimeUTC,F1_M11,P_M11,Q1_M11,Q2_M11,T1_M11,T2_M11,T3_M11,T4_M11,T5_M11,U1_M11,ZSPAN_M11,X0_M11,X2_M11,X1_M11
2022-02-18 02:00:00,,0823.4,5.00,0.00,22.3,21.7,00.0,31.2,24.0,08.3,-000.1,0010.55,0005.77,0005.26
2022-02-18 02:01:00,,0823.3,4.99,0.00,22.3,21.6,00.0,31.2,24.0,08.4,0000.0,0010.46,0005.81,0005.29
2022-02-18 02:02:00,,0823.4,5.01,0.00,22.2,21.6,00.0,31.2,24.0,08.5,0000.2,0009.64,0005.82,0005.30
2022-02-18 02:03:00,,0823.4,5.00,0.00,22.2,21.5,00.0,31.2,23.9,08.5,0000.6,0009.96,0005.87,0005.32
2022-02-18 02:04:00,,0823.4,5.00,0.00,22.2,21.5,00.0,31.2,23.9,08.5,0000.7,0010.15,0005.89,0005.34
2022-02-18 02:05:00,,0823.4,5.01,0.00,22.2,21.5,00.0,31.2,23.9,08.6,0000.7,0010.40,0005.96,0005.37
2022-02-18 02:06:00,,0823.3,5.00,0.00,22.1,21.4,00.0,31.2,23.8,08.6,0001.7,0010.46,0006.01,0005.38
2022-02-18 02:07:00,,0823.2,5.00,0.00,22.1,21.4,00.0,31.2,23.8,08.6,0001.3,0010.80,0006.06,0005.40
2022-02-18 02:08:00,,0823.1,5.01,0.00,22.1,21.4,00.0,31.2,23.8,08.6,0001.3,0011.48,0006.12,0005.40
2022-02-18 02:09:00,,0823.1,5.00,0.00,22.1,21.4,00.0,31.2,23.8,08.6,0000.8,0011.51,0006.14,0005.38
2022-02-18 02:10:00,,0823.2,4.99,0.00,22.1,21.4,00.0,31.2,23.8,08.6,0000.4,0011.75,0006.21,0005.39
2022-02-18 02:11:00,,0823.2,5.01,0.00,22.1,21.3,00.0,31.1,23.8,08.6,0000.9,0012.15,0006.24,0005.38
2022-02-18 02:12:00,,0823.2,4.99,0.00,22.1,21.3,00.0,31.1,23.8,08.6,0000.8,0011.81,0006.21,0005.35
2022-02-18 02:13:00,,0823.2,5.00,0.00,22.1,21.3,00.0,31.1,23.8,08.6,0000.6,0011.94,0006.22,0005.34
2022-02-18 02:14:00,,0823.2,5.02,0.00,22.1,21.3,00.0,31.1,23.8,08.6,0001.3,0011.70,0006.21,0005.32
2022-02-18 02:15:00,,0823.2,4.99,0.00,22.1,21.2,00.0,31.1,23.8,08.5,0001.6,0011.58,0006.19,0005.29
2022-02-18 02:16:00,,0823.2,4.99,0.00,22.1,21.4,00.0,31.1,23.8,08.5,0002.2,0011.42,0006.12,0005.26
2022-02-18 02:17:00,,0823.2,5.00,0.00,22.1,22.0,00.0,31.1,24.0,08.5,0001.4,0013.04,0006.07,0005.23
2022-02-18 02:18:00,,0823.3,5.01,0.00,22.3,22.7,00.0,31.2,24.2,08.4,0001.2,0012.91,0006.03,0005.20
2022-02-18 02:19:00,,0823.4,4.99,0.00,22.4,22.9,00.0,31.2,24.3,08.3,0000.9,0012.07,0005.94,0005.16
2022-02-18 02:20:00,,0823.4,5.01,0.00,22.4,22.7,00.0,31.2,24.4,08.3,0000.9,0012.25,0005.87,0005.13
2022-02-18 02:21:00,,0823.3,4.99,0.00,22.4,22.5,00.0,31.2,24.3,08.3,0001.9,0012.59,0005.79,0005.11
2022-02-18 02:22:00,,0823.3,4.99,0.00,22.4,22.3,00.0,31.2,24.3,08.3,0001.7,0012.23,0005.72,0005.09
2022-02-18 02:23:00,,0823.3,5.00,0.00,22.4,22.1,00.0,31.2,24.2,08.3,0001.4,0012.13,0005.67,0005.08
2022-02-18 02:24:00,,0823.3,5.01,0.00,22.4,22.0,00.0,31.3,24.2,08.4,0001.1,0011.84,0005.58,0005.05
2022-02-18 02:25:00,,0823.4,4.99,0.00,22.4,21.9,00.0,31.3,24.1,08.4,0000.0,0011.80,0005.52,0005.04
2022-02-18 02:26:00,,0823.3,5.01,0.00,22.3,21.8,00.0,31.3,24.1,08.4,0000.0,0011.84,0005.49,0005.02
2022-02-18 02:27:00,,0823.4,4.99,0.00,22.3,21.7,00.0,31.3,24.0,08.5,0000.0,0012.03,0005.51,0005.02
2022-02-18 02:28:00,,0823.3,5.01,0.00,22.3,21.6,00.0,31.3,24.0,08.5,0000.0,0010.92,0005.52,0005.04
2022-02-18 02:29:00,,0823.4,4.99,0.00,22.2,21.6,00.0,31.2,24.0,08.5,0000.0,0010.97,0005.48,0005.04
2022-02-18 02:30:00,,0823.4,5.01,0.00,22.2,21.5,00.0,31.2,23.9,08.6,0000.0,0010.91,0005.47,0005.06
2022-02-18 02:31:00,,0823.3,4.99,0.00,22.2,21.5,00.0,31.2,23.9,08.6,0000.0,0010.60,0005.51,0005.09
2022-02-18 02:32:00,,0823.2,5.02,0.00,22.1,21.4,00.0,31.2,23.8,08.6,0000.0,0010.71,0005.51,0005.10
2022-02-18 02:33:00,,0823.3,4.99,0.00,22.1,21.3,00.0,31.2,23.8,08.5,0000.0,0011.43,0005.53,0005.11
2022-02-18 02:34:00,,0823.3,5.00,0.00,22.1,21.3,00.0,31.2,23.8,08.4,0000.0,0011.08,0005.50,0005.07
2022-02-18 02:35:00,,0823.3,5.00,0.00,22.1,21.3,00.0,31.2,23.8,08.6,0000.0,0011.27,0005.55,0005.09
2022-02-18 02:36:00,,0823.2,4.99,0.00,22.1,21.3,00.0,31.1,23.8,08.6,0000.0,0011.54,0005.62,0005.12
2022-02-18 02:37:00,,0823.3,5.01,0.00,22.0,21.3,00.0,31.1,23.7,08.5,0000.0,0011.34,0005.61,0005.12
2022-02-18 02:38:00,,0823.4,5.01,0.00,22.0,21.2,00.0,31.1,23.7,08.5,0000.0,0011.67,0005.58,0005.11
2022-02-18 02:39:00,,0823.4,4.99,0.00,22.0,21.2,00.0,31.1,23.7,08.5,0000.0,0010.98,0005.56,0005.10
2022-02-18 02:40:00,,0823.4,5.00,0.00,22.0,21.2,00.0,31.1,23.7,08.6,0000.0,0010.84,0005.58,0005.10
2022-02-18 02:41:00,,0823.3,5.01,0.00,21.9,21.1,00.0,31.1,23.6,08.7,0000.0,0011.11,0005.62,0005.10
2022-02-18 02:42:00,,0823.5,5.00,0.00,22.0,21.5,00.0,31.1,23.7,08.6,0000.0,0011.44,0005.59,0005.08
2022-02-18 02:43:00,,0823.6,5.00,0.00,22.1,22.2,00.0,31.1,23.9,08.6,0000.0,0010.68,0005.59,0005.08
2022-02-18 02:44:00,,0823.7,5.00,0.00,22.2,22.9,00.0,31.1,24.2,08.4,0000.0,0010.03,0005.60,0005.07
2022-02-18 02:45:00,,0823.6,5.01,0.00,22.3,22.7,00.0,31.1,24.2,08.3,0000.0,0010.08,0005.62,0005.10
2022-02-18 02:46:00,,0823.5,5.00,0.00,22.3,22.5,00.0,31.2,24.2,08.2,0000.0,0009.93,0005.56,0005.06
2022-02-18 02:47:00,,0823.6,5.00,0.00,22.3,22.2,00.0,31.2,24.1,08.1,0000.0,0009.60,0005.46,0004.99
2022-02-18 02:48:00,,0823.6,5.00,0.00,22.3,22.0,00.0,31.2,24.1,08.1,0000.0,0009.60,0005.41,0004.94
2022-02-18 02:49:00,,0823.6,5.00,0.00,22.2,21.8,00.0,31.2,24.0,08.2,0000.0,0008.89,0005.35,0004.92
2022-02-18 02:50:00,,0823.7,4.99,0.00,22.2,21.7,00.0,31.2,24.0,08.2,0000.0,0008.86,0005.32,0004.89
2022-02-18 02:51:00,,0823.7,5.01,0.00,22.2,21.6,00.0,31.2,24.0,08.1,0000.0,0008.83,0005.26,0004.84
2022-02-18 02:52:00,,0823.7,5.00,0.00,22.2,21.6,00.0,31.2,24.0,08.1,0000.0,0008.57,0005.15,0004.78
2022-02-18 02:53:00,,0823.7,4.99,0.00,22.2,21.5,00.0,31.2,24.0,08.2,0000.0,0008.08,0005.10,0004.73
2022-02-18 02:54:00,,0823.7,5.01,0.00,22.2,21.4,00.0,31.2,23.9,08.2,0000.0,0008.05,0005.03,0004.67
2022-02-18 02:55:00,,0823.7,5.00,0.00,22.2,21.4,00.0,31.1,23.9,08.2,0000.0,0007.99,0004.96,0004.62
2022-02-18 02:56:00,,0823.8,4.98,0.00,22.1,21.4,00.0,31.1,23.9,08.2,0000.0,0008.09,0004.95,0004.58
2022-02-18 02:57:00,,0823.8,5.01,0.00,22.1,21.3,00.0,31.1,23.8,08.3,0000.0,0008.44,0004.96,0004.56
2022-02-18 02:58:00,,0823.8,4.99,0.00,22.1,21.3,00.0,31.1,23.8,08.3,0000.0,0008.39,0004.96,0004.56
2022-02-18 02:59:00,,0823.9,4.99,0.00,22.1,21.2,00.0,31.1,23.8,08.4,0000.0,0008.39,0004.99,0004.57
